Vancouver Int'l Airport, British Columbia

Past 24 Hour Conditions

Date / Time
(PDT)
Conditions Temp
(°C)
Humidity
(%)
Dew Point
(°C)
Wind
(km/h)
Pressure
(kPa)
Visibility
(km)
27 May 2015
21:00 Sunny 18 77 14 SSW 5 101.6 32
20:00 Sunny 19 71 13 N 2 101.6 32
19:00 Sunny 19 74 14 SW 7 101.6 32
18:00 Sunny 19 71 14 SW 10 101.6 48
17:00 Mainly Sunny 20   64 13 SW 12 101.6 48
16:00 Partly Cloudy 19 70 14 WSW 13 101.7 48
15:00 Partly Cloudy 19 74 14 WSW 12 101.7 32
14:00 Cloudy 18 77 14 SW 14 101.8 24
13:00 Cloudy 18 70 13 SW 8 101.8 24
12:00 Mostly Cloudy 18 72 13 SSE 7 101.9 24
11:00 Mostly Cloudy 16 76 12 SSE 4 101.8 24
10:00 Mostly Cloudy 16 76 11 SSE 8 101.8 24
9:00 Cloudy 15   77 11 SSE 7 101.8 32
8:00 Cloudy 15   79 12 SE 5 101.8 32
7:00 Cloudy 15   79 11 SE 9 101.8 32
6:00 Cloudy 15   85 12 SE 6 101.8 32
5:00 Cloudy 15   83 12 S 8 101.8 32
4:00 Cloudy 15   80 12 SSE 9 101.7 32
3:00 Cloudy 16 81 12 ESE 7 101.7 32
2:00 Cloudy 16 81 13 ESE 11 101.7 32
1:00 Cloudy 17 76 12 ESE 4 101.7 32
00:00 Mostly Cloudy 16 74 12 calm 101.7 32
26 May 2015
23:00 Partly Cloudy 16 71 11 SE 7 101.6 32
22:00 Partly Cloudy 17 67 11 SE 7 101.6 32
21:00 Partly Cloudy 17 71 12 SSW 8 101.6 32
N/A Not available
↑ Highest temperature
↓ Lowest temperature

If you require additional historical weather information, please visit Climate Data Online.

What we are doing

Date modified: